Location: Dillon
(41.1766°N, 107.0923°W)
Time: 11:33:42
(UTC+00:00)

AO-92 - Pass Details

Date: 04 July 2022
Orbit: 469 x 481 km, 97.4° (Epoch: 10 August)

Event Time Altitude Azimuth Distance (km) Brightness Sun altitude
Exits shadow 05:49:33 29° 264° (W) 896 ? -23.1°
Drops below altitude 10° 05:52:43 10° 326° (NW) 1,665 ? -23.3°
Sets 05:54:58 0° 337° (NNW) 2,552 ? -23.5°
